sat.trackr.live / text

‹ back to catalog

ONEWEB-0296

NORAD 49085 · 2021-075L

PAYLOAD ACTIVE UNKNOWN

§ Identity

Operator
Country
UK
Launch date
2021-08-21
Launch site
TYMSC
Launch vehicle
Mass (kg)
RCS (m²)

Purposes: comms

External: N2YO · Heavens-Above · Gunter

§ Orbital elements

Epoch: 2026-09-20T03:34:50.557728Z

Period
109.72 min
Inclination
87.8978°
Eccentricity
0.0001751
Mean motion
13.12443609 rev/d
Perigee alt
1,212.4 km
Apogee alt
1,215.1 km
Semi-major
7,591.9 km
B*
-8.0015e-4
RAAN
331.8150°
Arg perigee
109.1243°
Mean anomaly
251.0075°
Rev number
24,703

§ Raw data

ONEWEB-02961 49085U 21075L   26263.14919627 -.00000275  00000+0 -80015-3 0  99912 49085  87.8978 331.8150 0001751 109.1243 251.0075 13.12443609247039

JSON: /api/v1/satellites/49085 · /tle

For live sub-satellite position, see the globe view (requires WebGL).

§ Visibility from observer

Set your observer location to see the next 7 days of passes ≥ 10°. The values pass through the URL so the page stays shareable.

No JS? Fill the form by hand. The geolocation button needs JavaScript.